{"data":{"norad_id":59422,"intl_designator":"2024-065B","name":"STARLINK-11090 [DTC]","alt_names":[],"object_type":"PAYLOAD","status":"ACTIVE","operator":null,"country":"US","launch_date":"2024-04-07","launch_site_code":"AFWTR","launch_vehicle":null,"mission":null,"orbit_class":"UNKNOWN","rcs_meters":null,"size_class":null,"mass_kg":null,"dimensions":null,"purposes":["comms"],"wikipedia_slug":null,"has_3d_model":false,"image_url":null,"decayed_at":null,"tle_current":{"epoch":"2026-05-25T02:14:34.656288Z","epoch_age_seconds":81181,"freshness":"FRESH","line1":"1 59422U 24065B   26145.09345667  .00006161  00000+0  55684-4 0  9992","line2":"2 59422  53.1589  77.2068 0000680  59.7401 300.3685 15.69703149123539","mean_motion":15.69703149,"eccentricity":6.8e-5,"inclination_deg":53.1589,"raan_deg":77.2068,"arg_perigee_deg":59.7401,"mean_anomaly_deg":300.3685,"bstar":5.5684e-5,"rev_number":12353,"period_min":91.737090603237,"perigee_km":359.28817936249,"apogee_km":360.20453149883,"semimajor_km":6737.8833554307,"source":"CELESTRAK","updated_at":"2026-05-25T13:38:18.943953Z"}}}